SL-14 DEB, 45339

Orbit data source: Space-Track

SL-14 DEB, 45339 is space debris in LEO originally from a launch on Thu, 15 Aug 1991 UTC launched from the Plesetsk Missile And Space Complex (PKMTR). Debris objects in space refer to the collection of defunct objects orbiting the Earth. Examples of debris include non-operational satellites, rocket bodies, and fragments generated from explosions, collisions, or faulty payload assembly.

Loading next visibility...
Identifier
45339, 1991-056CD
Orbit
LEO
Country
Flag of CISCIS
Related business
Manufacturer
Unknown
Mission
Spacecraft
Bus & Motor
Unknown
Mass
Unknown
Launch date (UTC)
1991-08-15 (35 years ago)
Launch vehicle
Unknown
Launch site
Plesetsk Missile And Space Complex (PKMTR)
Object type
Payload
Rocket body
Debris
Shape & HBR
Unknown shape, 0.1 m
Radar Cross Section
Small (<0.1 m²)

Expand to show TLE details & history
Last TLE update: 2 days ago

TLE from 2 days ago
0 SL-14 DEB
1 45339U 91056CD  26171.27489625  .00006386  00000-0  61786-2 0  9998
2 45339  82.5101  13.9619 0093705   9.9760 350.3227 13.77681431311533
Epoch: 2026-06-20T06:35Z
TLE epoch observation values (Epoch: 2026-06-20T06:35:51.036Z)
Latitude
-0.00003°
Longitude
6.50738°
Altitude
907.124 km
Speed
7.433 km/s
True Right ascension
00h 55m 50s
True Declination
0° 00' 00"
Sunlit
Object was in daylight at epoch
Visualization orbit readout
Latitude
Unknown
Longitude
Unknown
Altitude
Unknown
Speed
Unknown
Apparent Right ascension
Unknown
Apparent Declination
Unknown
Sunlit
N/A
Visualization observer readout
Local Sidereal Time
21:36:17
Azimuth
Unknown
Elevation
Unknown
Doppler factor
Unknown
Orbital elements
Apogee altitude
1,038.133 km
Perigee altitude
900.435 km
Semi-major axis
7,347.421 km
Eccentricity
0.00937
Inclination
82.5101°
RAAN
13.9619°
Arg. of periapsis
9.976°
True anomaly
350.14009°
Mean anomaly
350.3227°
Eccentric anomaly
350.23161°
Mean motion
3.4462 °/min
Orbital period
104.46 mins
BSTAR
0.0061786
Loading maneuver chart data...
Computing Atmospheric mass density...
Loading historical data...
Loading historical data...
Loading historical data...
Loading historical data...
Loading historical data...
Loading historical data...
Loading historical data...

Documentation

Showing up to 5 results
|